TimeEST,TemperatureF,Dew PointF,Humidity,Sea Level PressureIn,VisibilityMPH,Wind Direction,Wind SpeedMPH,Gust SpeedMPH,PrecipitationIn,Events,Conditions,WindDirDegrees,DateUTC
12:53 AM,46.0,43.0,89,30.25,6.0,Calm,Calm,-,N/A,,Clear,0,2012-11-17 05:53:00
1:53 AM,45.0,42.1,90,30.26,6.0,North,3.5,-,N/A,,Clear,360,2012-11-17 06:53:00
2:53 AM,46.0,43.0,89,30.26,7.0,Calm,Calm,-,N/A,,Scattered Clouds,0,2012-11-17 07:53:00
3:53 AM,46.9,42.1,83,30.25,9.0,NNE,5.8,-,N/A,,Clear,20,2012-11-17 08:53:00
4:53 AM,46.9,42.1,83,30.26,9.0,Variable,4.6,-,N/A,,Mostly Cloudy,0,2012-11-17 09:53:00
5:53 AM,46.0,41.0,83,30.27,8.0,NNE,5.8,-,N/A,,Clear,20,2012-11-17 10:53:00
6:53 AM,45.0,39.9,82,30.28,9.0,Variable,4.6,-,N/A,,Partly Cloudy,0,2012-11-17 11:53:00
7:53 AM,46.9,39.9,77,30.30,9.0,Variable,3.5,-,N/A,,Overcast,0,2012-11-17 12:53:00
8:53 AM,48.0,39.9,74,30.31,10.0,Variable,5.8,16.1,N/A,,Overcast,0,2012-11-17 13:53:00
9:53 AM,50.0,39.0,66,30.33,10.0,ENE,5.8,-,N/A,,Overcast,60,2012-11-17 14:53:00
10:53 AM,53.1,39.9,61,30.32,10.0,North,6.9,-,N/A,,Overcast,10,2012-11-17 15:53:00
11:53 AM,57.9,41.0,53,30.31,10.0,Variable,5.8,-,N/A,,Overcast,0,2012-11-17 16:53:00
12:53 PM,59.0,39.9,49,30.27,10.0,Variable,6.9,17.3,N/A,,Mostly Cloudy,0,2012-11-17 17:53:00
1:53 PM,63.0,41.0,45,30.26,10.0,Variable,5.8,-,N/A,,Partly Cloudy,0,2012-11-17 18:53:00
2:53 PM,64.0,43.0,46,30.25,10.0,North,6.9,-,N/A,,Clear,360,2012-11-17 19:53:00
3:53 PM,63.0,42.1,46,30.25,10.0,Variable,6.9,-,N/A,,Clear,0,2012-11-17 20:53:00
4:53 PM,60.1,42.1,51,30.26,10.0,NNE,4.6,-,N/A,,Clear,20,2012-11-17 21:53:00
5:53 PM,55.9,42.1,60,30.28,10.0,NNE,3.5,-,N/A,,Clear,20,2012-11-17 22:53:00
6:53 PM,55.9,39.9,55,30.29,10.0,NNE,5.8,-,N/A,,Mostly Cloudy,30,2012-11-17 23:53:00
7:53 PM,54.0,37.9,55,30.31,10.0,NE,4.6,-,N/A,,Mostly Cloudy,50,2012-11-18 00:53:00
8:53 PM,51.1,35.1,54,30.32,10.0,North,3.5,-,N/A,,Clear,10,2012-11-18 01:53:00
9:53 PM,50.0,37.9,63,30.31,10.0,North,4.6,-,N/A,,Partly Cloudy,360,2012-11-18 02:53:00
10:53 PM,48.0,37.0,66,30.30,10.0,North,4.6,-,N/A,,Partly Cloudy,360,2012-11-18 03:53:00
11:10 PM,48.2,37.4,66,30.30,10.0,North,4.6,-,N/A,,Mostly Cloudy,360,2012-11-18 04:10:00
11:53 PM,50.0,37.9,63,30.29,10.0,North,4.6,-,N/A,,Mostly Cloudy,360,2012-11-18 04:53:00